{"data":{"norad_id":64301,"epoch":"2026-05-25T00:52:04.187712Z","epoch_age_seconds":67850,"freshness":"FRESH","line1":"1 64301U 25123L   26145.03615958  .00005399  00000+0  45982-3 0  9998","line2":"2 64301  70.0016   1.9980 0002464 269.3398  90.7478 14.98341071 53059","mean_motion":14.98341071,"eccentricity":0.0002464,"inclination_deg":70.0016,"raan_deg":1.998,"arg_perigee_deg":269.3398,"mean_anomaly_deg":90.7478,"bstar":0.00045982,"rev_number":5305,"period_min":96.10628900661,"perigee_km":570.30913590838,"apogee_km":573.73417409356,"semimajor_km":6950.158655001,"source":"CELESTRAK","updated_at":"2026-05-25T13:38:20.367506Z"}}